TimeAKST,TemperatureF,Dew PointF,Humidity,Sea Level PressureIn,VisibilityMPH,Wind Direction,Wind SpeedMPH,Gust SpeedMPH,PrecipitationIn,Events,Conditions,WindDirDegrees,DateUTC
12:16 AM,35.6,28.4,75,29.54,10.0,SE,6.9,-,N/A,,Overcast,140,2013-02-05 09:16:00
12:36 AM,37.4,28.4,70,29.53,10.0,SE,5.8,-,N/A,,Overcast,130,2013-02-05 09:36:00
12:56 AM,37.4,28.4,70,29.52,10.0,ESE,8.1,16.1,N/A,,Overcast,110,2013-02-05 09:56:00
1:16 AM,37.4,28.4,70,29.51,10.0,ESE,8.1,-,N/A,,Overcast,110,2013-02-05 10:16:00
1:36 AM,35.6,28.4,75,29.51,10.0,SE,6.9,-,N/A,,Overcast,140,2013-02-05 10:36:00
1:56 AM,37.4,30.2,75,29.49,10.0,East,10.4,-,N/A,,Overcast,100,2013-02-05 10:56:00
2:16 AM,37.4,30.2,75,29.49,10.0,East,12.7,-,N/A,,Overcast,100,2013-02-05 11:16:00
2:36 AM,37.4,28.4,70,29.49,10.0,East,10.4,-,N/A,,Overcast,100,2013-02-05 11:36:00
2:56 AM,37.4,30.2,75,29.48,10.0,East,11.5,-,N/A,,Overcast,100,2013-02-05 11:56:00
3:16 AM,37.4,30.2,75,29.47,10.0,East,12.7,-,N/A,,Overcast,100,2013-02-05 12:16:00
3:36 AM,37.4,30.2,75,29.46,10.0,East,12.7,-,N/A,,Overcast,100,2013-02-05 12:36:00
3:56 AM,37.4,30.2,75,29.45,10.0,ESE,9.2,-,N/A,,Overcast,120,2013-02-05 12:56:00
4:16 AM,37.4,30.2,75,29.45,10.0,SE,9.2,-,N/A,,Overcast,130,2013-02-05 13:16:00
4:36 AM,37.4,30.2,75,29.44,10.0,SE,6.9,-,N/A,,Overcast,130,2013-02-05 13:36:00
4:56 AM,37.4,30.2,75,29.44,10.0,SE,8.1,-,N/A,,Overcast,140,2013-02-05 13:56:00
5:16 AM,37.4,30.2,75,29.44,10.0,ESE,9.2,-,N/A,,Overcast,110,2013-02-05 14:16:00
5:36 AM,37.4,30.2,75,29.43,10.0,ESE,9.2,-,N/A,,Overcast,110,2013-02-05 14:36:00
5:56 AM,37.4,30.2,75,29.43,10.0,ESE,10.4,-,N/A,,Overcast,110,2013-02-05 14:56:00
6:16 AM,37.4,30.2,75,29.42,10.0,East,13.8,18.4,N/A,,Overcast,100,2013-02-05 15:16:00
6:36 AM,39.2,28.4,65,29.42,10.0,East,15.0,-,N/A,,Overcast,100,2013-02-05 15:36:00
6:56 AM,37.4,28.4,70,29.43,10.0,East,12.7,-,N/A,,Overcast,100,2013-02-05 15:56:00
7:16 AM,37.4,28.4,70,29.42,10.0,ESE,15.0,21.9,N/A,,Overcast,110,2013-02-05 16:16:00
7:36 AM,37.4,28.4,70,29.42,10.0,East,9.2,-,N/A,,Overcast,90,2013-02-05 16:36:00
7:56 AM,37.4,28.4,70,29.43,10.0,SE,8.1,-,N/A,,Overcast,140,2013-02-05 16:56:00
8:16 AM,37.4,30.2,75,29.42,10.0,SE,10.4,-,N/A,,Overcast,130,2013-02-05 17:16:00
8:36 AM,37.4,30.2,75,29.43,10.0,SE,8.1,-,N/A,,Overcast,130,2013-02-05 17:36:00
8:56 AM,37.4,32.0,81,29.43,10.0,ESE,10.4,-,N/A,,Overcast,120,2013-02-05 17:56:00
9:16 AM,37.4,32.0,81,29.43,10.0,East,12.7,-,N/A,,Overcast,100,2013-02-05 18:16:00
9:36 AM,37.4,30.2,75,29.42,10.0,East,12.7,-,N/A,,Overcast,100,2013-02-05 18:36:00
9:56 AM,39.2,30.2,70,29.43,10.0,East,12.7,-,N/A,,Overcast,100,2013-02-05 18:56:00
10:16 AM,39.2,30.2,70,29.43,10.0,East,11.5,-,N/A,,Overcast,90,2013-02-05 19:16:00
10:36 AM,39.2,30.2,70,29.42,10.0,East,11.5,-,N/A,,Overcast,90,2013-02-05 19:36:00
10:56 AM,39.2,32.0,75,29.42,10.0,East,12.7,-,N/A,,Mostly Cloudy,90,2013-02-05 19:56:00
11:16 AM,41.0,32.0,70,29.42,10.0,East,13.8,18.4,N/A,,Mostly Cloudy,90,2013-02-05 20:16:00
11:36 AM,41.0,30.2,65,29.43,10.0,East,13.8,18.4,N/A,,Mostly Cloudy,90,2013-02-05 20:36:00
11:56 AM,41.0,30.2,65,29.43,10.0,East,13.8,20.7,N/A,,Mostly Cloudy,80,2013-02-05 20:56:00
12:16 PM,41.0,30.2,65,29.43,10.0,East,13.8,-,N/A,,Mostly Cloudy,80,2013-02-05 21:16:00
12:36 PM,41.0,30.2,65,29.43,10.0,East,13.8,-,N/A,,Mostly Cloudy,100,2013-02-05 21:36:00
12:56 PM,42.8,30.2,61,29.44,10.0,East,12.7,-,N/A,,Mostly Cloudy,100,2013-02-05 21:56:00
1:16 PM,42.8,30.2,61,29.44,10.0,East,11.5,-,N/A,,Mostly Cloudy,100,2013-02-05 22:16:00
1:36 PM,42.8,30.2,61,29.44,10.0,East,15.0,-,N/A,,Mostly Cloudy,100,2013-02-05 22:36:00
1:56 PM,41.0,30.2,65,29.45,10.0,SE,5.8,-,N/A,,Mostly Cloudy,130,2013-02-05 22:56:00
2:16 PM,41.0,30.2,65,29.46,10.0,Calm,Calm,-,N/A,,Mostly Cloudy,0,2013-02-05 23:16:00
2:36 PM,41.0,32.0,70,29.45,10.0,East,8.1,-,N/A,,Mostly Cloudy,80,2013-02-05 23:36:00
2:56 PM,41.0,30.2,65,29.46,10.0,East,3.5,-,N/A,,Mostly Cloudy,90,2013-02-05 23:56:00
3:16 PM,41.0,30.2,65,29.46,10.0,Calm,Calm,-,N/A,,Overcast,0,2013-02-06 00:16:00
3:36 PM,39.2,30.2,70,29.46,10.0,East,8.1,-,N/A,,Overcast,90,2013-02-06 00:36:00
3:56 PM,39.2,30.2,70,29.46,10.0,East,10.4,-,N/A,,Overcast,100,2013-02-06 00:56:00
4:16 PM,39.2,30.2,70,29.46,10.0,East,8.1,-,N/A,,Overcast,100,2013-02-06 01:16:00
4:36 PM,39.2,30.2,70,29.47,10.0,Calm,Calm,-,N/A,,Overcast,0,2013-02-06 01:36:00
4:56 PM,39.2,28.4,65,29.47,10.0,Calm,Calm,-,N/A,,Overcast,0,2013-02-06 01:56:00
5:16 PM,39.2,28.4,65,29.47,10.0,East,10.4,-,N/A,,Overcast,90,2013-02-06 02:16:00
5:36 PM,39.2,28.4,65,29.47,10.0,East,8.1,-,N/A,,Overcast,90,2013-02-06 02:36:00
5:56 PM,39.2,28.4,65,29.47,10.0,ESE,8.1,-,N/A,,Overcast,110,2013-02-06 02:56:00
6:16 PM,37.4,30.2,75,29.47,10.0,NE,6.9,-,N/A,,Overcast,50,2013-02-06 03:16:00
6:36 PM,37.4,28.4,70,29.47,10.0,ESE,10.4,-,N/A,,Overcast,110,2013-02-06 03:36:00
6:56 PM,37.4,30.2,75,29.47,10.0,ESE,9.2,-,N/A,,Overcast,110,2013-02-06 03:56:00
7:16 PM,37.4,30.2,75,29.47,10.0,ESE,8.1,-,N/A,,Overcast,120,2013-02-06 04:16:00
7:36 PM,37.4,30.2,75,29.47,10.0,East,8.1,-,N/A,,Overcast,90,2013-02-06 04:36:00
7:56 PM,37.4,28.4,70,29.48,10.0,East,8.1,-,N/A,,Overcast,80,2013-02-06 04:56:00
8:16 PM,37.4,28.4,70,29.48,10.0,East,6.9,-,N/A,,Overcast,80,2013-02-06 05:16:00
8:36 PM,37.4,28.4,70,29.48,10.0,East,6.9,-,N/A,,Overcast,100,2013-02-06 05:36:00
8:56 PM,37.4,28.4,70,29.49,10.0,East,6.9,-,N/A,,Overcast,100,2013-02-06 05:56:00
9:16 PM,37.4,28.4,70,29.49,10.0,East,8.1,-,N/A,,Overcast,90,2013-02-06 06:16:00
9:36 PM,37.4,28.4,70,29.50,10.0,SE,8.1,-,N/A,,Overcast,130,2013-02-06 06:36:00
9:56 PM,37.4,28.4,70,29.50,10.0,East,11.5,-,N/A,,Overcast,80,2013-02-06 06:56:00
10:16 PM,37.4,28.4,70,29.50,10.0,East,10.4,-,N/A,,Overcast,100,2013-02-06 07:16:00
10:36 PM,37.4,30.2,75,29.50,10.0,ESE,13.8,-,N/A,,Overcast,120,2013-02-06 07:36:00
10:56 PM,37.4,30.2,75,29.51,10.0,East,13.8,-,N/A,,Overcast,100,2013-02-06 07:56:00
11:16 PM,37.4,28.4,70,29.51,10.0,ENE,10.4,-,N/A,,Overcast,70,2013-02-06 08:16:00
11:36 PM,37.4,30.2,75,29.52,10.0,ESE,8.1,-,N/A,,Overcast,110,2013-02-06 08:36:00
11:56 PM,37.4,30.2,75,29.52,10.0,ESE,6.9,-,N/A,,Overcast,110,2013-02-06 08:56:00